User: anonymous   Login
Location: ???????
(55.4362°N, 38.1183°E)
Time: 21:16:30
(UTC+00:00)
Language:

FENGYUN 1C DEB - Orbit

View from above orbital plane
View from above orbital plane
View from above satellite
View from above satellite

Ground track
Ground track

The orbit data is extracted from the following two-line orbital elements,

1 30954U 99025BAU 22024.33823463  .00000446  00000-0  26913-3 0  9996
2 30954  98.6340 156.9757 0142745 251.1193 163.8987 14.06587935763981
Epoch (UTC): 24 January 2022 08:07:03
Eccentricity: 0.0142745
inclination: 98.6340°
perigee height: 767 km
apogee height: 974 km
right ascension of ascending node: 156.9757°
argument of perigee: 251.1193°
revolutions per day: 14.06587935
mean anomaly at epoch: 163.8987°
orbit number at epoch: 76398

The dashed part of the orbit path shows where the satellite is in the earth's shadow,  

DLR